Location: Lake Hudson State Recreational Area
(41.8372°N, 84.2445°W)
Time: 02:33:51
(UTC-04:00)

ISS - Visible Passes

Search period start: 22 October 2017 00:00
Search period end: 01 November 2017 00:00
Orbit: 401 x 408 km, 51.6° (Epoch: 22 October)

Date Brightness Start Highest point End Pass type
(mag) Time Alt. Az. Time Alt. Az. Time Alt. Az.
28 Oct -1.0 07:12:45 10° S 07:15:10 19° SE 07:17:36 10° E visible
29 Oct -0.4 06:22:35 10° SE 06:22:58 10° SE 06:23:22 10° ESE visible
30 Oct -2.8 07:03:25 10° SW 07:06:33 46° SE 07:09:41 10° ENE visible
31 Oct -1.8 06:13:09 20° SSE 06:14:13 24° SE 06:16:54 10° E visible
